1998-067SX (49278 NORAD) Tracking and Keplerian Element Data

This shows tracking and keplerian element data for the satellite.

Feedback or suggestion? Click here.




ElementValue
Catalog49278
Name1998-067SX
Epoch Orbit857
Epoch Day340.13912042
Epoch Year2021
RAAN211.3291
Inclination51.6385
Eccentricity0.0002455
Argument of Perigee302.4079
Mean Anonmoly57.6674
Mean Motion15.5370534
Decay Rate0.00035868
L11 49278U 98067SX 21340.13912042 .00035868 00000+0 55504-3 0 9993
L22 49278 51.6385 211.3291 0002455 302.4079 57.6674 15.53705340 8578

Live tracking and technical data element details for 1998-067SX (NORAD 49278). 1998-067SX can be tracked NOW for your location showing map with azimuth and elevation plus other details from your city location.

Track the satellite on the map from your city or location and see movement details for azimuth, elevation, latitude, longitude, range, height, and movement on the map or in text.







IsCatalogInMostPopularTable: catalog: 49278, numindb: 5
Update: records affected: 1



GetName: 49278 1998-067SX

Hit Count: updated at: Mon, 06 Dec 2021 15:25:37 GMT